Location: Allie Creek
(37.5926°N, 89.8526°W)
Time: 14:59:17
(UTC+00:00)

SL-16 R/B - Pass Details

Date: 24 April 2024
Orbit: 841 x 845 km, 71.0° (Epoch: 25 May)

Event Time Altitude Azimuth Distance (km) Brightness Sun altitude
Exits shadow 03:15:03 13° 53° (NE) 2,277 4.3 -26.7°
Drops below altitude 10° 03:15:42 10° 49° (NE) 2,467 4.6 -26.8°
Sets 03:18:32 0° 36° (NE) 3,407 5.5 -27.1°
